DW2213 Weather Reports


time (UTC)temp
C
wind
direction
speed
KPH
gust
KPH
rain 1hr
cm
rain 24hr
cm
rain mn
cm
humidity
%
barometer
mb
20260901194804 26 142 0.0 0.0 0.00 0.00 0.00 82 1013.5
20260901194304 26 142 0.0 0.0 0.00 0.00 0.00 82 1013.3
20260901193804 26 142 0.0 0.0 0.00 0.00 0.00 82 1013.5
20260901193304 26 142 0.0 0.0 0.00 0.00 0.00 82 1013.5
20260901192804 26 142 0.0 0.0 0.00 0.00 0.00 82 1013.4
20260901192306 26 142 0.0 0.0 0.00 0.00 0.00 82 1013.3
20260901191803 26 142 0.0 0.0 0.00 0.00 0.00 81 1013.2
20260901191304 27 142 0.0 0.0 0.00 0.00 0.00 81 1013.1
20260901190304 27 142 0.0 0.0 0.00 0.00 0.00 80 1012.9
20260901185804 27 142 0.0 0.0 0.00 0.00 0.00 80 1012.8
20260901185306 27 142 0.0 0.0 0.00 0.00 0.00 80 1012.8
20260901184804 27 142 0.0 0.0 0.00 0.00 0.00 80 1012.8
20260901184304 27 142 0.0 0.0 0.00 0.00 0.00 80 1012.7
20260901183803 27 142 0.0 0.0 0.00 0.00 0.00 80 1012.6
20260901183304 27 142 0.0 0.0 0.00 0.00 0.00 80 1012.6
20260901182305 27 142 0.0 8.0 0.00 0.00 0.00 79 1012.5
20260901181803 27 150 0.0 3.2 0.00 0.00 0.00 79 1012.5
20260901181304 27 150 0.0 1.6 0.00 0.00 0.00 79 1012.7
20260901180803 27 150 0.0 3.2 0.00 0.00 0.00 78 1012.7
20260901180304 27 148 1.6 8.0 0.00 0.00 0.00 78 1012.7
20260901175804 27 138 1.6 3.2 0.00 0.00 0.00 78 1012.6
20260901175305 27 137 1.6 4.8 0.00 0.00 0.00 77 1012.7
20260901174804 27 140 0.0 3.2 0.00 0.00 0.00 77 1012.7
20260901174303 28 137 0.0 3.2 0.00 0.00 0.00 76 1012.8
20260901173804 28 136 1.6 8.0 0.00 0.00 0.00 76 1012.8
20260901172803 28 132 1.6 8.0 0.00 0.00 0.00 75 1012.8
20260901171803 28 143 1.6 4.8 0.00 0.00 0.00 74 1012.7
20260901171304 28 142 1.6 4.8 0.00 0.00 0.00 73 1012.7
20260901170804 28 140 1.6 8.0 0.00 0.00 0.00 73 1012.7
20260901170305 28 139 0.0 4.8 0.00 0.00 0.00 72 1012.6
20260901165306 29 129 0.0 3.2 0.00 0.00 0.00 71 1012.7
20260901164805 29 154 1.6 4.8 0.00 0.00 0.00 71 1012.6
20260901164305 29 125 1.6 8.0 0.00 0.00 0.00 71 1012.7
20260901163305 29 138 0.0 8.0 0.00 0.00 0.00 71 1012.6
20260901162306 29 126 0.0 3.2 0.00 0.00 0.00 72 1012.7
20260901161805 28 129 0.0 3.2 0.00 0.00 0.00 73 1012.7
20260901161305 28 127 0.0 4.8 0.00 0.00 0.00 74 1012.7
20260901160805 28 123 1.6 4.8 0.00 0.00 0.00 73 1012.7
20260901160306 28 122 1.6 4.8 0.00 0.00 0.00 75 1012.9
20260901155805 28 140 0.0 8.0 0.00 0.00 0.00 77 1012.9
20260901155306 28 139 1.6 4.8 0.00 0.00 0.00 78 1013.0
20260901154805 27 132 0.0 0.0 0.00 0.00 0.00 79 1012.9
20260901154304 27 133 1.6 8.0 0.00 0.00 0.00 79 1013.1
20260901153805 27 137 1.6 8.0 0.00 0.00 0.00 79 1012.1
20260901153305 27 145 1.6 12.9 0.00 0.00 0.00 79 1012.7
20260901152805 27 139 1.6 4.8 0.00 0.00 0.00 79 1012.4
20260901152306 27 145 0.0 0.0 0.00 0.00 0.00 78 1013.2
20260901151805 27 144 1.6 4.8 0.00 0.00 0.00 78 1013.8
20260901151305 27 120 0.0 0.0 0.00 0.00 0.00 76 1013.7
20260901150805 27 120 0.0 1.6 0.00 0.00 0.00 76 1013.2
20260901150305 28 158 1.6 3.2 0.00 0.00 0.00 75 1013.2
20260901145805 28 134 1.6 9.7 0.00 0.00 0.00 73 1013.1
20260901145306 28 150 3.2 9.7 0.00 0.00 0.00 71 1013.5
20260901144805 28 154 3.2 9.7 0.00 0.00 0.00 70 1013.9
20260901144304 28 155 1.6 9.7 0.00 0.00 0.00 70 1013.8
20260901143804 28 156 3.2 11.3 0.00 0.00 0.00 70 1013.5
20260901143305 28 151 1.6 4.8 0.00 0.00 0.00 71 1013.6
20260901142805 28 161 0.0 8.0 0.00 0.00 0.00 71 1013.5
20260901141305 29 124 1.6 9.7 0.00 0.00 0.00 65 1013.4
20260901140805 29 126 0.0 0.0 0.00 0.00 0.00 63 1014.0
20260901135804 30 127 0.0 4.8 0.00 0.00 0.00 60 1013.9
20260901135305 30 137 1.6 3.2 0.00 0.00 0.00 61 1014.0
20260901134805 30 156 0.0 0.0 0.00 0.00 0.00 61 1014.5
20260901134305 30 157 0.0 0.0 0.00 0.00 0.00 63 1014.5
20260901133805 30 157 0.0 0.0 0.00 0.00 0.00 62 1014.7
20260901132805 30 157 1.6 4.8 0.00 0.00 0.00 64 1014.8
20260901132307 30 153 0.0 4.8 0.00 0.00 0.00 63 1014.8
20260901131805 30 152 1.6 8.0 0.00 0.00 0.00 64 1014.9
20260901131305 30 145 0.0 4.8 0.00 0.00 0.00 67 1014.9
20260901130805 29 142 1.6 8.0 0.00 0.00 0.00 65 1014.9
20260901130304 29 136 0.0 4.8 0.00 0.00 0.00 67 1014.8
20260901125308 29 136 1.6 4.8 0.00 0.00 0.00 68 1014.3
20260901124804 30 115 0.0 4.8 0.00 0.00 0.00 65 1014.3
20260901124304 29 78 0.0 4.8 0.00 0.00 0.00 67 1014.4
20260901123805 29 138 0.0 3.2 0.00 0.00 0.00 66 1014.4
20260901123305 29 138 1.6 4.8 0.00 0.00 0.00 67 1014.5
20260901122805 30 135 1.6 8.0 0.00 0.00 0.00 66 1014.4
20260901122306 30 147 1.6 4.8 0.00 0.00 0.00 67 1014.2
20260901121305 30 134 1.6 8.0 0.00 0.00 0.00 65 1014.5
20260901120805 30 150 1.6 8.0 0.00 0.00 0.00 64 1014.5
20260901120305 30 121 1.6 8.0 0.00 0.00 0.00 64 1014.6
20260901115805 30 145 1.6 9.7 0.00 0.00 0.00 64 1014.8
20260901115306 30 147 3.2 9.7 0.00 0.00 0.00 64 1014.9
20260901114805 30 149 1.6 8.0 0.00 0.00 0.00 64 1014.9
20260901114305 30 124 1.6 8.0 0.00 0.00 0.00 66 1014.7
20260901113805 30 129 3.2 8.0 0.00 0.00 0.00 66 1014.9
20260901112804 30 118 0.0 3.2 0.00 0.00 0.00 66 1015.2
20260901112306 30 118 0.0 4.8 0.00 0.00 0.00 66 1015.1
20260901111804 29 107 0.0 3.2 0.00 0.00 0.00 66 1015.1
20260901110804 30 144 1.6 3.2 0.00 0.00 0.00 65 1015.3
20260901110304 30 100 0.0 4.8 0.00 0.00 0.00 65 1015.4
20260901105305 30 117 1.6 8.0 0.00 0.00 0.00 63 1015.1
20260901104804 31 113 1.6 11.3 0.00 0.00 0.00 64 1014.9
20260901104305 30 143 1.6 9.7 0.00 0.00 0.00 66 1015.1
20260901103804 30 136 1.6 4.8 0.00 0.00 0.00 65 1015.0
20260901103305 30 150 3.2 14.5 0.00 0.00 0.00 65 1015.1
20260901102805 30 144 1.6 14.5 0.00 0.00 0.00 66 1015.2
20260901102306 30 139 4.8 9.7 0.00 0.00 0.00 66 1015.4
20260901101805 30 139 0.0 0.0 0.00 0.00 0.00 66 1015.4
20260901101305 30 153 0.0 8.0 0.00 0.00 0.00 67 1015.4
20260901100804 30 133 1.6 9.7 0.00 0.00 0.00 67 1015.5
20260901100305 30 127 3.2 11.3 0.00 0.00 0.00 65 1015.5
20260901095306 30 101 0.0 9.7 0.00 0.00 0.00 65 1015.4
20260901094805 30 157 3.2 11.3 0.00 0.00 0.00 67 1015.4
20260901093804 30 138 1.6 8.0 0.00 0.00 0.00 67 1015.3
20260901092805 30 135 4.8 11.3 0.00 0.00 0.00 68 1015.4
20260901092305 30 142 1.6 12.9 0.00 0.00 0.00 70 1015.3
20260901091805 30 153 1.6 8.0 0.00 0.00 0.00 70 1015.4
20260901090304 28 126 1.6 8.0 0.00 0.00 0.00 74 1015.3
20260901085805 28 140 3.2 8.0 0.00 0.00 0.00 74 1015.2
20260901085306 28 147 3.2 11.3 0.00 0.00 0.00 75 1015.3
20260901084804 28 138 1.6 8.0 0.00 0.00 0.00 77 1015.2
20260901084305 28 150 0.0 4.8 0.00 0.00 0.00 76 1015.2
20260901083305 28 133 1.6 9.7 0.00 0.00 0.00 78 1015.1
20260901082805 28 138 0.0 8.0 0.00 0.00 0.00 77 1015.0
20260901081804 28 128 1.6 8.0 0.00 0.00 0.00 77 1015.0
20260901081305 28 123 0.0 4.8 0.00 0.00 0.00 78 1015.0
20260901080805 28 114 1.6 8.0 0.00 0.00 0.00 77 1014.9
20260901075805 28 131 0.0 8.0 0.00 0.00 0.00 77 1014.6
20260901075307 28 144 1.6 8.0 0.00 0.00 0.00 77 1014.7
20260901074805 28 138 1.6 8.0 0.00 0.00 0.00 78 1014.6
20260901074305 28 122 0.0 3.2 0.00 0.00 0.00 79 1014.7
20260901073304 27 129 1.6 4.8 0.00 0.00 0.00 81 1014.8
20260901071804 27 139 0.0 3.2 0.00 0.00 0.00 84 1014.6
20260901071305 27 91 0.0 3.2 0.00 0.00 0.00 85 1014.6
20260901070805 26 82 0.0 0.0 0.00 0.00 0.00 85 1014.5
20260901070305 26 82 0.0 3.2 0.00 0.00 0.00 86 1014.3
20260901065805 26 80 0.0 0.0 0.00 0.00 0.00 86 1014.2
20260901065305 26 80 0.0 0.0 0.00 0.00 0.00 86 1014.1
20260901064804 26 80 0.0 1.6 0.00 0.00 0.00 87 1014.0
20260901064305 26 80 0.0 3.2 0.00 0.00 0.00 87 1014.1
20260901063805 26 77 0.0 3.2 0.00 0.00 0.00 87 1014.1
20260901063304 26 75 0.0 3.2 0.00 0.00 0.00 88 1014.2
20260901062805 26 66 0.0 4.8 0.00 0.00 0.00 88 1013.7
20260901062309 25 62 0.0 0.0 0.00 0.00 0.00 88 1013.7
20260901061804 25 63 0.0 0.0 0.00 0.00 0.00 88 1013.9
20260901061304 25 49 0.0 0.0 0.00 0.00 0.00 88 1014.1
20260901060804 25 49 0.0 0.0 0.00 0.00 0.00 88 1013.9
20260901060304 25 49 0.0 0.0 0.00 0.00 0.00 89 1013.9
20260901055805 25 49 0.0 0.0 0.00 0.00 0.00 89 1013.8
20260901055306 25 49 0.0 0.0 0.00 0.00 0.00 89 1013.9
20260901054804 25 49 0.0 0.0 0.00 0.00 0.00 89 1013.9
20260901053804 25 49 0.0 0.0 0.00 0.00 0.00 89 1013.8
20260901053304 25 49 0.0 0.0 0.00 0.00 0.00 89 1013.5
20260901052805 25 47 0.0 0.0 0.00 0.00 0.00 89 1013.5
20260901052307 25 47 0.0 0.0 0.00 0.00 0.00 89 1013.5
20260901051304 25 47 0.0 0.0 0.00 0.00 0.00 89 1013.6
20260901050804 25 47 0.0 0.0 0.00 0.00 0.00 89 1013.6
20260901050304 25 48 0.0 0.0 0.00 0.00 0.00 89 1013.4
20260901045804 25 46 0.0 0.0 0.00 0.00 0.00 89 1013.4
20260901044804 25 44 0.0 0.0 0.00 0.00 0.00 90 1013.2
20260901044304 25 47 0.0 1.6 0.00 0.00 0.00 90 1013.1
20260901043804 25 47 0.0 3.2 0.00 0.00 0.00 90 1013.0
20260901043304 25 37 0.0 0.0 0.00 0.00 0.00 90 1013.2
20260901042805 25 19 0.0 0.0 0.00 0.00 0.00 90 1013.2
20260901041804 25 31 0.0 0.0 0.00 0.00 0.00 90 1013.5
20260901041305 25 31 0.0 0.0 0.00 0.00 0.00 90 1013.6
20260901040804 25 31 0.0 0.0 0.00 0.00 0.00 90 1013.6
20260901040305 25 31 0.0 0.0 0.00 0.00 0.00 90 1013.7
20260901035805 25 31 0.0 0.0 0.00 0.00 0.00 90 1013.6
20260901035305 25 31 0.0 0.0 0.00 0.00 0.00 90 1013.6
20260901034804 25 31 0.0 0.0 0.00 0.00 0.00 90 1013.6
20260901034304 25 31 0.0 0.0 0.00 0.00 0.00 90 1013.6
20260901033804 25 31 0.0 0.0 0.00 0.00 0.00 90 1013.6
20260901032804 25 31 0.0 0.0 0.00 0.00 0.00 90 1013.6
20260901032306 25 31 0.0 0.0 0.00 0.00 0.00 90 1013.7
20260901031805 25 31 0.0 0.0 0.00 0.00 0.00 89 1013.8
20260901031304 25 31 0.0 0.0 0.00 0.00 0.00 89 1013.8
20260901030805 25 31 0.0 0.0 0.00 0.00 0.00 89 1013.8
20260901030304 25 31 0.0 0.0 0.00 0.00 0.00 89 1013.8
20260901025804 25 31 0.0 0.0 0.00 0.00 0.00 89 1013.7
20260901024304 25 31 0.0 0.0 0.00 0.00 0.00 89 1013.7
20260901023804 25 31 0.0 0.0 0.00 0.00 0.00 88 1013.7
20260901023304 25 31 0.0 0.0 0.00 0.00 0.00 88 1013.8
20260901022805 25 31 0.0 0.0 0.00 0.00 0.00 88 1013.9
20260901022306 26 31 0.0 0.0 0.00 0.00 0.00 88 1013.9
20260901021804 26 31 0.0 0.0 0.00 0.00 0.00 88 1014.0
20260901021304 26 31 0.0 0.0 0.00 0.00 0.00 88 1014.0
20260901020804 26 31 0.0 0.0 0.00 0.00 0.00 88 1014.0
20260901020304 26 31 0.0 0.0 0.00 0.00 0.00 88 1014.0
20260901015804 26 31 0.0 0.0 0.00 0.00 0.00 88 1014.0
20260901015305 26 31 0.0 0.0 0.00 0.00 0.00 88 1014.0
20260901014804 26 31 0.0 0.0 0.00 0.00 0.00 88 1014.1
20260901014304 26 31 0.0 0.0 0.00 0.00 0.00 88 1014.2
20260901013804 26 31 0.0 0.0 0.00 0.00 0.00 88 1014.2
20260901012306 26 31 0.0 0.0 0.00 0.00 0.00 88 1014.3
20260901011804 26 31 0.0 0.0 0.00 0.00 0.00 88 1014.3
20260901011304 26 31 0.0 0.0 0.00 0.00 0.00 87 1014.3
20260901010804 26 31 0.0 0.0 0.00 0.00 0.00 87 1014.5
20260901005307 26 31 0.0 0.0 0.00 0.00 0.00 87 1014.6
20260901004804 26 31 0.0 0.0 0.00 0.00 0.00 87 1014.6
20260901004304 26 31 0.0 0.0 0.00 0.00 0.00 87 1014.6
20260901003805 26 36 0.0 0.0 0.00 0.00 0.00 87 1014.7
20260901003304 26 44 1.6 3.2 0.00 0.00 0.00 87 1014.7
20260901002805 26 44 0.0 3.2 0.00 0.00 0.00 87 1014.6
20260901002305 26 44 0.0 1.6 0.00 0.00 0.00 87 1014.7
20260901001804 26 44 0.0 1.6 0.00 0.00 0.00 87 1014.7
20260901001304 26 44 0.0 1.6 0.00 0.00 0.00 87 1014.6
20260901000804 26 43 0.0 3.2 0.00 0.00 0.00 87 1014.6
20260901000304 26 347 0.0 1.6 0.00 0.00 0.00 87 1014.7
20260831235804 26 24 0.0 4.8 0.00 0.00 0.00 87 1014.7
20260831235306 26 34 0.0 0.0 0.00 0.00 0.00 87 1014.8
20260831234804 26 34 0.0 4.8 0.00 0.00 0.00 87 1014.8
20260831234305 26 27 0.0 3.2 0.00 0.00 0.00 87 1014.8
20260831233804 26 25 0.0 3.2 0.00 0.00 0.00 87 1014.8
20260831233305 26 0 0.0 4.8 0.00 0.00 0.00 87 1014.8
20260831232804 26 0 0.0 4.8 0.00 0.00 0.00 87 1014.8
20260831231304 26 19 0.0 4.8 0.00 0.00 0.00 86 1014.8
20260831230803 26 102 0.0 1.6 0.00 0.00 0.00 86 1014.8
20260831230304 26 102 0.0 1.6 0.00 0.00 0.00 86 1014.8
20260831225804 26 102 0.0 0.0 0.00 0.00 0.00 86 1014.8
20260831225306 26 102 0.0 1.6 0.00 0.00 0.00 86 1014.7
20260831224304 27 102 0.0 3.2 0.00 0.00 0.00 86 1014.8
20260831223804 27 102 0.0 1.6 0.00 0.00 0.00 85 1014.7
20260831223304 26 102 0.0 0.0 0.00 0.00 0.00 85 1014.7
20260831222804 26 102 0.0 0.0 0.00 0.00 0.00 85 1014.8
20260831221804 26 102 0.0 0.0 0.00 0.00 0.00 85 1014.7
20260831220819 26 102 0.0 3.2 0.00 0.00 0.00 85 1014.6
20260831220305 26 87 0.0 1.6 0.00 0.00 0.00 85 1014.5
20260831215804 26 86 0.0 0.0 0.00 0.00 0.00 85 1014.4
20260831215306 26 86 0.0 1.6 0.00 0.00 0.00 85 1014.4
20260831214304 27 86 0.0 1.6 0.00 0.00 0.00 85 1014.4
20260831213804 27 86 0.0 0.0 0.00 0.00 0.00 85 1014.4
20260831213304 27 86 0.0 0.0 0.00 0.00 0.00 85 1014.3
20260831212804 27 86 0.0 0.0 0.00 0.00 0.00 85 1014.2
20260831212306 27 86 0.0 1.6 0.00 0.00 0.00 85 1014.2
20260831211804 27 86 0.0 3.2 0.00 0.00 0.00 85 1014.2
20260831211304 27 86 0.0 3.2 0.00 0.00 0.00 85 1014.1
20260831210304 27 104 0.0 1.6 0.00 0.00 0.00 85 1014.1
20260831205804 27 104 0.0 3.2 0.00 0.00 0.00 85 1014.1
20260831205305 27 104 0.0 3.2 0.00 0.00 0.00 85 1014.1
20260831203803 27 107 0.0 3.2 0.00 0.00 0.00 84 1014.0
20260831203304 27 102 0.0 3.2 0.00 0.00 0.00 84 1013.9
20260831201804 27 132 0.0 3.2 0.00 0.00 0.00 83 1013.7
20260831201304 27 135 1.6 8.0 0.00 0.00 0.00 83 1013.7
20260831200803 27 78 0.0 3.2 0.00 0.00 0.00 83 1013.7
20260831200303 27 77 0.0 0.0 0.00 0.00 0.00 83 1013.7
20260831195804 27 77 0.0 3.2 0.00 0.00 0.00 83 1013.6
20260831195306 27 79 0.0 4.8 0.00 0.00 0.00 83 1013.5